www.pogodaiklimat.ru

Погода и климат >> Архив погоды >> Россия >> Ставропольский край >> Арзгир


ПОГОДА в Арзгире

  • Прогноз погоды в Арзгире
  • Монитор погоды в Арзгире

АРХИВ ПОГОДЫ в Арзгире

Время (UTC), дата Ветер
(напр.,м/с)
 
Видим.   Явления Облачность Т
(С)
Тd
(С)
f
(%)
Тe
(С)
Тes
(С)
Комфортность P
(гПа)
Po
(гПа)
Тmin
(С)
Tmax
(С)
R
(мм)
R24
(мм)
S
(см)
15 10.09 В 6-10
{13}
20 км {метель} ясно +24.4 +0.4 21 +23 +23 комфорт 1021.9 1010.0 +26.7
18 10.09 В 4
{10}
20 км {метель} ясно +18.5 +2.3 34 +19 +19 1023.6 1011.4
21 10.09 В 4 20 км ясно +15.7 +5.4 50 +15 +15 1024.2 1011.9
00 11.09 В 4 20 км ясно +14.3 +9.5 73 +13 +13 1024.3 1011.9
03 11.09 В 4 20 км ясно +12.2 +9.1 81 +10 +10 1025.3 1012.8 +11.5
06 11.09 В 5
{10}
20 км 6/0 2000 м
[Ac trans]
+19.3 +9.3 52 +20 +22 1026.0 1013.8
09 11.09 СВ 7-12
{13}
20 км 4/0 2000 м
[Ac trans]
+26.1 +1.8 21 +25 +27 комфорт 1025.0 1013.0
12 11.09 СВ 5
{12}
20 км 3/0 2000 м
[Ac trans]
+27.1 +0.8 18 +25 +28 комфорт 1024.3 1012.4
15 11.09 В 4
{10}
20 км 3/0
[Ci fib]
+25.4 +1.6 21 +24 +24 комфорт 1024.4 1012.4 +27.5
18 11.09 ЮВ 6 20 км 3/0
[Ci fib]
+20.3 +4.5 35 +21 +21 комфорт 1025.6 1013.5
21 11.09 В 3 20 км ясно +16.1 +10.3 68 +16 +16 1025.7 1013.4
00 12.09 З 1 20 км 3/0 2000 м
[Ac trans]
+11.4 +7.3 76 +11 +11 1025.7 1013.1
03 12.09 СВ 1 4000 м дымка 9/9 300 м
[Cb cap]
+9.2 +6.5 83 +9 +9 1026.7 1014.0 +9.1
06 12.09 В 4 20 км ясно +20.3 +10.7 54 +22 +26 комфорт 1026.4 1014.2
09 12.09 СВ 4 20 км ясно +25.4 +6.5 30 +25 +33 комфорт 1024.9 1012.9
12 12.09 В 5-11
{11}
20 км 6/4 600 м
[Cb cap Ac cast]
+26.9 +2.7 21 +25 +27 комфорт 1023.6 1011.7
15 12.09 СВ 4-11
{11}
20 км 6/0 2000 м
[Ac cast]
+24.7 +2.3 23 +24 +24 комфорт 1023.8 1011.8 +27.0
18 12.09 ЮВ 4
{11}
20 км ясно +18.9 +5.3 41 +19 +19 1024.6 1012.4
21 12.09 ЮЗ 1 20 км ясно +15.6 +9.1 65 +16 +16 1024.2 1011.8
00 13.09 В 1 20 км ясно +12.7 +9.5 81 +13 +13 1024.1 1011.6
03 13.09 штиль 0 20 км ясно +9.7 +8.7 93 +9 +9 1025.0 1012.4 +8.8
06 13.09 В 5 20 км ясно +20.1 +11.6 58 +22 +25 комфорт 1025.3 1013.1
09 13.09 В 7-11
{12}
20 км 6/6 600 м
[Cb cap]
+24.4 +6.6 32 +24 +26 комфорт 1023.6 1011.6
12 13.09 В 6
{11}
20 км 6/6 600 м
[Cb cap]
+26.2 +4.8 25 +25 +26 комфорт 1022.0 1010.1
15 13.09 В 4
{10}
20 км 3/3 600 м
[Cb cap]
+23.4 +4.9 30 +23 +23 комфорт 1022.1 1010.1 +26.2
18 13.09 ЮВ 3 20 км ясно +17.0 +7.4 53 +17 +17 1023.4 1011.1
21 13.09 ЮВ 3 20 км ясно +16.8 +9.2 61 +17 +17 1022.8 1010.5
00 14.09 штиль 0 20 км ясно +11.8 +7.8 76 +11 +11 1022.6 1010.1
03 14.09 штиль 0 20 км ясно +9.5 +8.0 90 +9 +9 1023.0 1010.4 +8.1
06 14.09 В 3 20 км ясно +20.7 +11.6 56 +23 +28 комфорт 1022.8 1010.7
09 14.09 В 5
{10}
20 км 3/0 2000 м
[Ac trans]
+24.7 +4.1 26 +24 +29 комфорт 1021.1 1009.2
12 14.09 В 6
{10}
20 км 3/0 2000 м
[Ac trans]
+25.8 +3.4 23 +25 +27 комфорт 1019.2 1007.4
15 14.09 В 2 20 км 3/0 2000 м
[Ac trans]
+23.4 +4.2 29 +23 +23 комфорт 1018.3 1006.3 +26.3
18 14.09 ЮВ 5 20 км ясно +19.5 +5.1 39 +20 +20 1019.1 1007.0
21 14.09 ЮВ 6 20 км ясно +17.8 +10.1 61 +17 +17 1018.8 1006.6
00 15.09 СВ 1 20 км ясно +13.2 +9.7 79 +13 +13 1018.5 1006.1
03 15.09 штиль 0 20 км ясно +11.4 +9.4 88 +11 +11 1018.6 1006.1 +11.4
06 15.09 Ю 3 20 км ясно +22.5 +11.3 49 +25 +29 комфорт 1018.2 1006.2
09 15.09 ЮВ 2 20 км ясно +26.9 +6.1 27 +26 +38 жарко 1016.7 1004.9
12 15.09 З 4 20 км 3/0 2000 м
[Ac trans]
+27.8 +3.4 21 +26 +30 жарко 1015.8 1004.1
15 15.09 СЗ 3 20 км 3/0 2000 м
[Ac trans]
+25.6 +3.4 24 +25 +25 комфорт 1016.6 1004.8 +28.7
18 15.09 СЗ 2 20 км ясно +20.4 +6.4 40 +22 +22 комфорт 1019.1 1007.0
21 15.09 С 2 20 км ясно +15.6 +6.4 54 +16 +16 1020.3 1008.0
00 16.09 штиль 0 20 км ясно +10.0 +5.0 71 +9 +9 1020.8 1008.2
03 16.09 штиль 0 20 км ясно +9.4 +4.8 73 +9 +9 1020.3 1007.7 +7.7
06 16.09 В 4 20 км ясно +19.5 +3.1 34 +20 +24 1019.2 1007.1
09 16.09 В 3 20 км ясно +24.1 +2.4 24 +23 +33 комфорт 1016.9 1005.0
12 16.09 Ю 2 20 км ясно +27.3 +2.8 21 +26 +32 жарко 1013.5 1001.8
15 16.09 ЮВ 3 20 км ясно +24.6 +4.1 26 +24 +24 комфорт 1012.6 1000.7 +27.6
18 16.09 ЮВ 4 20 км ясно +21.4 +4.2 32 +22 +22 комфорт 1012.6 1000.6
21 16.09 Ю 6 20 км ясно +19.3 +7.4 46 +20 +20 1012.1 1000.0
00 17.09 Ю 5 20 км 4/0 2000 м
[Ac trans]
+17.3 +8.7 57 +17 +17 1011.7 999.6
03 17.09 ЮЗ 3 20 км 8/8 600 м
[Sc]
+15.9 +5.4 50 +16 +16 1012.5 1000.3 +15.1
06 17.09 ЮЗ 2 20 км 10/10 600 м
[Cb cap]
+20.0 +3.4 33 +21 +21 комфорт 1012.6 1000.5
09 17.09 ЮЗ 3 20 км 10/10 300 м
[Cb cap]
+19.2 +8.9 51 +20 +20 1011.3 999.3
12 17.09 ЮЗ 2 10 км ливневой дождь 10/10 300 м
[Cb cap]
+18.4 +11.4 64 +19 +19 1011.0 998.9

 

Местоположение метеостанции Арзгир (Ставропольский край, Россия): широта 45.40 долгота 44.20 высота над уровнем моря 103 м.

В архиве по умолчанию представлена погода в Арзгире за последнюю неделю. Архивные данные за месяц целиком и за предыдущие месяцы, начиная с января 2011 года, Вы можете получить, выбрав интересующий диапазон дат из раскрывающегося списка и нажав кнопку "Ввод!".


*Определитесь, кто Вы:
робот инопланетянин человек

Внимание! Время в таблицах - всемирное. Для получения местного времени необходимо прибавить поправку, которая равна 3 ч.

Смотрите также архив погоды в соседних городах и на ближайших метеорологических станциях:

Погода в Ики-Буруле (Калмыкия, Россия) (56 км)
Погода в Благодарном (Ставропольский край, Россия) (68 км)
Погода в Буденновске (Ставропольский край, Россия) (69 км)
Погода в Дивном (Ставропольский край, Россия) (88 км)
Погода в Светлограде (Ставропольский край, Россия) (106 км)
Погода в Элисте (Калмыкия, Россия) (108 км)
Погода в Зеленокумске (Ставропольский край, Россия) (111 км)
Погода в Александровском (Ставропольский край, Россия) (121 км)
Погода в Яшкуле (Калмыкия, Россия) (124 км)
Погода в Ремонтном (Ростовская область, Россия) (136 км)

Пояснения к столбцам:

Ветер - указаны скорость ветра в м/с - средняя за 10 мин, порывы в срок и между сроками (в фигурных скобках) и направление, откуда дует ветер: С - северный, СВ - северо-восточный, В - восточный, ЮВ - юго-восточный, Ю - южный, ЮЗ - юго-западный, З - западный, СЗ - северо-западный.
Видимость - горизонтальная дальность видимости в метрах или километрах. При видимости от 1 до 10 км при отсутствии осадков обычно наблюдается дымка, при ухудшении видимости до 1 км и менее - туман. В сухую погоду видимость может ухудшаться дымом, пылью или мглою.
Явления - указаны атмосферные явления, наблюдавшиеся в срок или в последний час перед сроком; фигурными скобками обозначены явления, наблюдавшиеся между сроками (за 1-3 часа до срока); квадратными скобками обозначены град или гололедные отложения с указанием их диаметра в мм.
Облачность - указаны через наклонную черту общая и нижняя облачность в баллах и высота нижней границы облаков в метрах; квадратными скобками обозначены формы облаков: Ci - перистые, Cs - перисто-слоистые, Cc - перисто-кучевые, Ac - высококучевые, As - высокослоистые, Sc - слоисто-кучевые, Ns - слоисто-дождевые, Cu - кучевые, Cb - кучево-дождевые. Подробнее классификацию облаков см. в Атласе облаков (PDF).
T - Температура воздуха - температура, измеренная на высоте 2 м над землей.
Td - Температура точки росы - температура, при понижении до которой содержащийся в воздухе водяной пар достигнет насыщения.
f - Относительная влажность воздуха - влажноcть воздуха, измеренная на высоте 2 м над землей.
Te - Эффективная температура - температура, которую ощущает одетый по сезону человек в тени. Характеристика душности погоды. При расчете учитывается влияние влажности воздуха и скорости ветра на теплоощущения человека.
Tes - Эффективная температура на солнце - температура, которую ощущает человек, с поправкой на солнечный нагрев. Характеристика знойности погоды. Зависит от высоты солнца над горизонтом, облачности и скорости ветра. Ночью, в пасмурную погоду, а также при ветре 12 м/с и более поправка равна нулю.
P - Атмосферное давление - приведенное к уровню моря атмосферное давление.
Po - Атмосферное давление - измеренное на уровне метеостанции атмосферное давление.
Tmin - Минимальная температура - минимум температуры воздуха на высоте 2 м над землей.
Tmax - Максимальная температура - максимум температуры воздуха на высоте 2 м над землей.
R - Количество осадков - Количество выпавших осадков за период времени, мм. При наведении курсора мыши на число - период времени, за который выпало указанное количество осадков.
R24 - Количество осадков - Количество выпавших осадков за 24 часа, мм.
S - Снежный покров - Высота снежного покрова, см. При наведении курсора мыши на число - состояние снежного покрова и степень покрытия местности в баллах.